sat.trackr.live / text

‹ back to catalog

STARLINK-31541

NORAD 59633 · 2024-082C

PAYLOAD ACTIVE UNKNOWN

§ Identity

Operator
Country
US
Launch date
2024-05-03
Launch site
AFETR
Launch vehicle
Mass (kg)
RCS (m²)

Purposes: comms

External: N2YO · Heavens-Above · Gunter

§ Orbital elements

Epoch: 2026-09-20T23:54:13.706208Z

Period
94.27 min
Inclination
43.0013°
Eccentricity
0.0001241
Mean motion
15.27575511 rev/d
Perigee alt
482.2 km
Apogee alt
483.9 km
Semi-major
6,861.2 km
B*
2.1178e-5
RAAN
109.7028°
Arg perigee
274.9312°
Mean anomaly
85.1398°
Rev number
13,495

§ Raw data

STARLINK-315411 59633U 24082C   26263.99599197  .00000321  00000+0  21178-4 0  99972 59633  43.0013 109.7028 0001241 274.9312  85.1398 15.27575511134957

JSON: /api/v1/satellites/59633 · /tle

For live sub-satellite position, see the globe view (requires WebGL).

§ Visibility from observer

Set your observer location to see the next 7 days of passes ≥ 10°. The values pass through the URL so the page stays shareable.

No JS? Fill the form by hand. The geolocation button needs JavaScript.